Year,Month,Day,Hour,Minute,Value (Times are PST for temperature in C)
2006,10,24,00,00,4.30
2006,10,24,00,01,4.30
2006,10,24,00,02,4.30
2006,10,24,00,03,4.40
2006,10,24,00,04,4.40
2006,10,24,00,05,4.40
2006,10,24,00,06,4.50
2006,10,24,00,07,4.50
2006,10,24,00,08,4.50
2006,10,24,00,09,4.50
2006,10,24,00,10,4.60
2006,10,24,00,11,4.60
2006,10,24,00,12,4.60
2006,10,24,00,13,4.60
2006,10,24,00,14,4.60
2006,10,24,00,15,4.60
2006,10,24,00,16,4.60
2006,10,24,00,17,4.60
2006,10,24,00,18,4.60
2006,10,24,00,19,4.70
2006,10,24,00,20,4.70
2006,10,24,00,21,4.70
2006,10,24,00,22,4.70
2006,10,24,00,23,4.70
2006,10,24,00,24,4.70
2006,10,24,00,25,4.80
2006,10,24,00,26,4.80
2006,10,24,00,27,4.80
2006,10,24,00,28,4.80
2006,10,24,00,29,4.80
2006,10,24,00,30,4.90
2006,10,24,00,31,4.90
2006,10,24,00,32,4.90
2006,10,24,00,33,4.90
2006,10,24,00,34,4.90
2006,10,24,00,35,4.90
2006,10,24,00,36,4.90
2006,10,24,00,37,4.90
2006,10,24,00,38,4.90
2006,10,24,00,39,4.90
2006,10,24,00,40,4.90
2006,10,24,00,41,4.90
2006,10,24,00,42,4.90
2006,10,24,00,43,4.90
2006,10,24,00,44,4.90
2006,10,24,00,45,4.90
2006,10,24,00,46,5.00
2006,10,24,00,47,5.10
2006,10,24,00,48,5.30
2006,10,24,00,49,5.60
2006,10,24,00,50,5.90
2006,10,24,00,51,6.10
2006,10,24,00,52,6.30
2006,10,24,00,53,6.40
2006,10,24,00,54,6.40
2006,10,24,00,55,6.30
2006,10,24,00,56,6.20
2006,10,24,00,57,6.10
2006,10,24,00,58,6.10
2006,10,24,00,59,6.00
2006,10,24,01,00,6.00
2006,10,24,01,01,5.90
2006,10,24,01,02,6.00
2006,10,24,01,03,6.00
2006,10,24,01,04,5.90
2006,10,24,01,05,5.90
2006,10,24,01,06,5.80
2006,10,24,01,07,5.80
2006,10,24,01,08,5.70
2006,10,24,01,09,5.70
2006,10,24,01,10,5.70
2006,10,24,01,11,5.60
2006,10,24,01,12,5.60
2006,10,24,01,13,5.50
2006,10,24,01,14,5.50
2006,10,24,01,15,5.50
2006,10,24,01,16,5.50
2006,10,24,01,17,5.50
2006,10,24,01,18,5.50
2006,10,24,01,19,5.50
2006,10,24,01,20,5.50
2006,10,24,01,21,5.50
2006,10,24,01,22,5.50
2006,10,24,01,23,5.50
2006,10,24,01,24,5.60
2006,10,24,01,25,5.60
2006,10,24,01,26,5.70
2006,10,24,01,27,5.80
2006,10,24,01,28,5.90
2006,10,24,01,29,6.00
2006,10,24,01,30,6.00
2006,10,24,01,31,6.00
2006,10,24,01,32,5.80
2006,10,24,01,33,5.70
2006,10,24,01,34,5.60
2006,10,24,01,35,5.60
2006,10,24,01,36,5.50
2006,10,24,01,37,5.50
2006,10,24,01,38,5.50
2006,10,24,01,39,5.40
2006,10,24,01,40,5.30
2006,10,24,01,41,5.30
2006,10,24,01,42,5.30
2006,10,24,01,43,5.40
2006,10,24,01,44,5.40
2006,10,24,01,45,5.60
2006,10,24,01,46,5.70
2006,10,24,01,47,6.00
2006,10,24,01,48,6.10
2006,10,24,01,49,6.20
2006,10,24,01,50,6.30
2006,10,24,01,51,6.40
2006,10,24,01,52,6.50
2006,10,24,01,53,6.60
2006,10,24,01,54,6.60
2006,10,24,01,55,6.60
2006,10,24,01,56,6.60
2006,10,24,01,57,6.60
2006,10,24,01,58,6.60
2006,10,24,01,59,6.60
2006,10,24,02,00,6.60
2006,10,24,02,01,6.50
2006,10,24,02,02,6.40
2006,10,24,02,03,6.30
2006,10,24,02,04,6.20
2006,10,24,02,05,6.00
2006,10,24,02,06,5.90
2006,10,24,02,07,5.80
2006,10,24,02,08,5.70
2006,10,24,02,09,5.70
2006,10,24,02,10,5.60
2006,10,24,02,11,5.60
2006,10,24,02,12,5.60
2006,10,24,02,13,5.60
2006,10,24,02,14,5.60
2006,10,24,02,15,5.60
2006,10,24,02,16,5.70
2006,10,24,02,17,5.70
2006,10,24,02,18,5.70
2006,10,24,02,19,5.70
2006,10,24,02,20,5.70
2006,10,24,02,21,5.80
2006,10,24,02,22,6.00
2006,10,24,02,23,6.10
2006,10,24,02,24,6.20
2006,10,24,02,25,6.20
2006,10,24,02,26,6.30
2006,10,24,02,27,6.30
2006,10,24,02,28,6.30
2006,10,24,02,29,6.30
2006,10,24,02,30,6.30
2006,10,24,02,31,6.30
2006,10,24,02,32,6.30
2006,10,24,02,33,6.20
2006,10,24,02,34,6.20
2006,10,24,02,35,6.30
2006,10,24,02,36,6.30
2006,10,24,02,37,6.40
2006,10,24,02,38,6.40
2006,10,24,02,39,6.50
2006,10,24,02,40,6.60
2006,10,24,02,41,6.60
2006,10,24,02,42,6.70
2006,10,24,02,43,6.70
2006,10,24,02,44,6.70
2006,10,24,02,45,6.70
2006,10,24,02,46,6.70
2006,10,24,02,47,6.60
2006,10,24,02,48,6.50
2006,10,24,02,49,6.40
2006,10,24,02,50,6.30
2006,10,24,02,51,6.30
2006,10,24,02,52,6.30
2006,10,24,02,53,6.40
2006,10,24,02,54,6.40
2006,10,24,02,55,6.40
2006,10,24,02,56,6.40
2006,10,24,02,57,6.40
2006,10,24,02,58,6.40
2006,10,24,02,59,6.40
2006,10,24,03,00,6.40
2006,10,24,03,01,6.30
2006,10,24,03,02,6.30
2006,10,24,03,03,6.40
2006,10,24,03,04,6.40
2006,10,24,03,05,6.40
2006,10,24,03,06,6.40
2006,10,24,03,07,6.50
2006,10,24,03,08,6.60
2006,10,24,03,09,6.60
2006,10,24,03,10,6.60
2006,10,24,03,11,6.60
2006,10,24,03,12,6.40
2006,10,24,03,13,6.40
2006,10,24,03,14,6.30
2006,10,24,03,15,6.30
2006,10,24,03,16,6.20
2006,10,24,03,17,6.20
2006,10,24,03,18,6.20
2006,10,24,03,19,6.20
2006,10,24,03,20,6.20
2006,10,24,03,21,6.20
2006,10,24,03,22,6.20
2006,10,24,03,23,6.20
2006,10,24,03,24,6.20
2006,10,24,03,25,6.30
2006,10,24,03,26,6.30
2006,10,24,03,27,6.30
2006,10,24,03,28,6.40
2006,10,24,03,29,6.40
2006,10,24,03,30,6.40
2006,10,24,03,31,6.40
2006,10,24,03,32,6.40
2006,10,24,03,33,6.40
2006,10,24,03,34,6.40
2006,10,24,03,35,6.50
2006,10,24,03,36,6.60
2006,10,24,03,37,6.70
2006,10,24,03,38,6.70
2006,10,24,03,39,6.80
2006,10,24,03,40,6.80
2006,10,24,03,41,6.90
2006,10,24,03,42,7.00
2006,10,24,03,43,7.10
2006,10,24,03,44,7.10
2006,10,24,03,45,7.20
2006,10,24,03,46,7.20
2006,10,24,03,47,7.30
2006,10,24,03,48,7.30
2006,10,24,03,49,7.40
2006,10,24,03,50,7.40
2006,10,24,03,51,7.50
2006,10,24,03,52,7.60
2006,10,24,03,53,7.70
2006,10,24,03,54,7.70
2006,10,24,03,55,7.80
2006,10,24,03,56,7.80
2006,10,24,03,57,7.80
2006,10,24,03,58,7.80
2006,10,24,03,59,7.90
2006,10,24,04,00,7.90
2006,10,24,04,01,7.90
2006,10,24,04,02,7.90
2006,10,24,04,03,8.00
2006,10,24,04,04,8.00
2006,10,24,04,05,8.00
2006,10,24,04,06,8.00
2006,10,24,04,07,8.10
2006,10,24,04,08,8.10
2006,10,24,04,09,8.20
2006,10,24,04,10,8.20
2006,10,24,04,11,8.20
2006,10,24,04,12,8.20
2006,10,24,04,13,8.20
2006,10,24,04,14,8.20
2006,10,24,04,15,8.20
2006,10,24,04,16,8.20
2006,10,24,04,17,8.20
2006,10,24,04,18,8.30
2006,10,24,04,19,8.30
2006,10,24,04,20,8.30
2006,10,24,04,21,8.30
2006,10,24,04,22,8.30
2006,10,24,04,23,8.30
2006,10,24,04,24,8.30
2006,10,24,04,25,8.30
2006,10,24,04,26,8.30
2006,10,24,04,27,8.30
2006,10,24,04,28,8.40
2006,10,24,04,29,8.40
2006,10,24,04,30,8.40
2006,10,24,04,31,8.40
2006,10,24,04,32,8.40
2006,10,24,04,33,8.40
2006,10,24,04,34,8.40
2006,10,24,04,35,8.40
2006,10,24,04,36,8.40
2006,10,24,04,37,8.40
2006,10,24,04,38,8.40
2006,10,24,04,39,8.40
2006,10,24,04,40,8.30
2006,10,24,04,41,8.30
2006,10,24,04,42,8.30
2006,10,24,04,43,8.30
2006,10,24,04,44,8.30
2006,10,24,04,45,8.30
2006,10,24,04,46,8.30
2006,10,24,04,47,8.30
2006,10,24,04,48,8.30
2006,10,24,04,49,8.30
2006,10,24,04,50,8.30
2006,10,24,04,51,8.30
2006,10,24,04,52,8.30
2006,10,24,04,53,8.30
2006,10,24,04,54,8.30
2006,10,24,04,55,8.30
2006,10,24,04,56,8.30
2006,10,24,04,57,8.30
2006,10,24,04,58,8.30
2006,10,24,04,59,8.30
2006,10,24,05,00,8.30
2006,10,24,05,01,8.30
2006,10,24,05,02,8.30
2006,10,24,05,03,8.30
2006,10,24,05,04,8.30
2006,10,24,05,05,8.30
2006,10,24,05,06,8.30
2006,10,24,05,07,8.20
2006,10,24,05,08,8.20
2006,10,24,05,09,8.20
2006,10,24,05,10,8.20
2006,10,24,05,11,8.20
2006,10,24,05,12,8.20
2006,10,24,05,13,8.20
2006,10,24,05,14,8.20
2006,10,24,05,15,8.20
2006,10,24,05,16,8.20
2006,10,24,05,17,8.20
2006,10,24,05,18,8.20
2006,10,24,05,19,8.20
2006,10,24,05,20,8.20
2006,10,24,05,21,8.20
2006,10,24,05,22,8.20
2006,10,24,05,23,8.20
2006,10,24,05,24,8.20
2006,10,24,05,25,8.20
2006,10,24,05,26,8.20
2006,10,24,05,27,8.30
2006,10,24,05,28,8.30
2006,10,24,05,29,8.30
2006,10,24,05,30,8.30
2006,10,24,05,31,8.30
2006,10,24,05,32,8.30
2006,10,24,05,33,8.30
2006,10,24,05,34,8.30
2006,10,24,05,35,8.30
2006,10,24,05,36,8.30
2006,10,24,05,37,8.30
2006,10,24,05,38,8.30
2006,10,24,05,39,8.30
2006,10,24,05,40,8.40
2006,10,24,05,41,8.40
2006,10,24,05,42,8.40
2006,10,24,05,43,8.40
2006,10,24,05,44,8.40
2006,10,24,05,45,8.40
2006,10,24,05,46,8.40
2006,10,24,05,47,8.40
2006,10,24,05,48,8.40
2006,10,24,05,49,8.40
2006,10,24,05,50,8.50
2006,10,24,05,51,8.50
2006,10,24,05,52,8.50
2006,10,24,05,53,8.50
2006,10,24,05,54,8.50
2006,10,24,05,55,8.60
2006,10,24,05,56,8.60
2006,10,24,05,57,8.60
2006,10,24,05,58,8.60
2006,10,24,05,59,8.70
2006,10,24,06,00,8.70
2006,10,24,06,01,8.70
2006,10,24,06,02,8.70
2006,10,24,06,03,8.70
2006,10,24,06,04,8.70
2006,10,24,06,05,8.70
2006,10,24,06,06,8.70
2006,10,24,06,07,8.70
2006,10,24,06,08,8.70
2006,10,24,06,09,8.80
2006,10,24,06,10,8.80
2006,10,24,06,11,8.80
2006,10,24,06,12,8.80
2006,10,24,06,13,8.80
2006,10,24,06,14,8.80
2006,10,24,06,15,8.80
2006,10,24,06,16,8.80
2006,10,24,06,17,8.80
2006,10,24,06,18,8.80
2006,10,24,06,19,8.80
2006,10,24,06,20,8.80
2006,10,24,06,21,8.80
2006,10,24,06,22,8.80
2006,10,24,06,23,8.90
2006,10,24,06,24,8.90
2006,10,24,06,25,8.90
2006,10,24,06,26,8.90
2006,10,24,06,27,9.00
2006,10,24,06,28,9.00
2006,10,24,06,29,9.00
2006,10,24,06,30,9.00
2006,10,24,06,31,9.00
2006,10,24,06,32,9.00
2006,10,24,06,33,9.00
2006,10,24,06,34,9.00
2006,10,24,06,35,9.00
2006,10,24,06,36,9.00
2006,10,24,06,37,9.00
2006,10,24,06,38,9.00
2006,10,24,06,39,8.90
2006,10,24,06,40,8.90
2006,10,24,06,41,8.90
2006,10,24,06,42,8.90
2006,10,24,06,43,8.90
2006,10,24,06,44,9.00
2006,10,24,06,45,9.00
2006,10,24,06,46,9.00
2006,10,24,06,47,9.00
2006,10,24,06,48,9.00
2006,10,24,06,49,9.00
2006,10,24,06,50,9.00
2006,10,24,06,51,9.00
2006,10,24,06,52,9.10
2006,10,24,06,53,9.10
2006,10,24,06,54,9.10
2006,10,24,06,55,9.10
2006,10,24,06,56,9.10
2006,10,24,06,57,9.10
2006,10,24,06,58,9.10
2006,10,24,06,59,9.10
2006,10,24,07,00,9.10
2006,10,24,07,01,9.20
2006,10,24,07,02,9.10
2006,10,24,07,03,9.10
2006,10,24,07,04,9.10
2006,10,24,07,05,9.10
2006,10,24,07,06,9.10
2006,10,24,07,07,9.10
2006,10,24,07,08,9.10
2006,10,24,07,09,9.20
2006,10,24,07,10,9.10
2006,10,24,07,11,9.10
2006,10,24,07,12,9.10
2006,10,24,07,13,9.10
2006,10,24,07,14,9.10
2006,10,24,07,15,9.10
2006,10,24,07,16,9.10
2006,10,24,07,17,9.10
2006,10,24,07,18,9.10
2006,10,24,07,19,9.10
2006,10,24,07,20,9.10
2006,10,24,07,21,9.10
2006,10,24,07,22,9.10
2006,10,24,07,23,9.10
2006,10,24,07,24,9.00
2006,10,24,07,25,9.00
2006,10,24,07,26,9.00
2006,10,24,07,27,8.90
2006,10,24,07,28,8.90
2006,10,24,07,29,8.90
2006,10,24,07,30,8.90
2006,10,24,07,31,8.90
2006,10,24,07,32,8.90
2006,10,24,07,33,8.90
2006,10,24,07,34,8.90
2006,10,24,07,35,8.90
2006,10,24,07,36,8.90
2006,10,24,07,37,8.90
2006,10,24,07,38,8.90
2006,10,24,07,39,8.80
2006,10,24,07,40,8.80
2006,10,24,07,41,8.80
2006,10,24,07,42,8.80
2006,10,24,07,43,8.80
2006,10,24,07,44,8.80
2006,10,24,07,45,8.80
2006,10,24,07,46,8.80
2006,10,24,07,47,8.80
2006,10,24,07,48,8.80
2006,10,24,07,49,8.70
2006,10,24,07,50,8.70
2006,10,24,07,51,8.70
2006,10,24,07,52,8.70
2006,10,24,07,53,8.70
2006,10,24,07,54,8.70
2006,10,24,07,55,8.70
2006,10,24,07,56,8.70
2006,10,24,07,57,8.80
2006,10,24,07,58,8.80
2006,10,24,07,59,8.80
2006,10,24,08,00,8.70
2006,10,24,08,01,8.70
2006,10,24,08,02,8.70
2006,10,24,08,03,8.70
2006,10,24,08,04,8.70
2006,10,24,08,05,8.60
2006,10,24,08,06,8.60
2006,10,24,08,07,8.60
2006,10,24,08,08,8.60
2006,10,24,08,09,8.60
2006,10,24,08,10,8.60
2006,10,24,08,11,8.60
2006,10,24,08,12,8.70
2006,10,24,08,13,8.60
2006,10,24,08,14,8.60
2006,10,24,08,15,8.60
2006,10,24,08,16,8.60
2006,10,24,08,17,8.60
2006,10,24,08,18,8.60
2006,10,24,08,19,8.60
2006,10,24,08,20,8.60
2006,10,24,08,21,8.60
2006,10,24,08,22,8.60
2006,10,24,08,23,8.70
2006,10,24,08,24,8.70
2006,10,24,08,25,8.70
2006,10,24,08,26,8.70
2006,10,24,08,27,8.80
2006,10,24,08,28,8.80
2006,10,24,08,29,8.80
2006,10,24,08,30,8.80
2006,10,24,08,31,8.90
2006,10,24,08,32,8.90
2006,10,24,08,33,8.90
2006,10,24,08,34,9.00
2006,10,24,08,35,9.00
2006,10,24,08,36,9.00
2006,10,24,08,37,9.00
2006,10,24,08,38,9.00
2006,10,24,08,39,9.00
2006,10,24,08,40,9.00
2006,10,24,08,41,9.00
2006,10,24,08,42,9.00
2006,10,24,08,43,9.00
2006,10,24,08,44,9.00
2006,10,24,08,45,9.00
2006,10,24,08,46,9.00
2006,10,24,08,47,9.00
2006,10,24,08,48,9.00
2006,10,24,08,49,9.00
2006,10,24,08,50,9.10
2006,10,24,08,51,9.10
2006,10,24,08,52,9.10
2006,10,24,08,53,9.10
2006,10,24,08,54,9.10
2006,10,24,08,55,9.10
2006,10,24,08,56,9.10
2006,10,24,08,57,9.10
2006,10,24,08,58,9.10
2006,10,24,08,59,9.10
2006,10,24,09,00,9.10
2006,10,24,09,01,9.10
2006,10,24,09,02,9.10
2006,10,24,09,03,9.10
2006,10,24,09,04,9.20
2006,10,24,09,05,9.20
2006,10,24,09,06,9.20
2006,10,24,09,07,9.20
2006,10,24,09,08,9.20
2006,10,24,09,09,9.20
2006,10,24,09,10,9.20
2006,10,24,09,11,9.30
2006,10,24,09,12,9.30
2006,10,24,09,13,9.30
2006,10,24,09,14,9.40
2006,10,24,09,15,9.40
2006,10,24,09,16,9.40
2006,10,24,09,17,9.50
2006,10,24,09,18,9.50
2006,10,24,09,19,9.60
2006,10,24,09,20,9.60
2006,10,24,09,21,9.70
2006,10,24,09,22,9.70
2006,10,24,09,23,9.70
2006,10,24,09,24,9.70
2006,10,24,09,25,9.70
2006,10,24,09,26,9.70
2006,10,24,09,27,9.70
2006,10,24,09,28,9.70
2006,10,24,09,29,9.70
2006,10,24,09,30,9.70
2006,10,24,09,31,9.70
2006,10,24,09,32,9.80
2006,10,24,09,33,9.70
2006,10,24,09,34,9.70
2006,10,24,09,35,9.70
2006,10,24,09,36,9.70
2006,10,24,09,37,9.80
2006,10,24,09,38,9.80
2006,10,24,09,39,9.80
2006,10,24,09,40,9.80
2006,10,24,09,41,9.80
2006,10,24,09,42,9.80
2006,10,24,09,43,9.80
2006,10,24,09,44,9.80
2006,10,24,09,45,9.90
2006,10,24,09,46,9.90
2006,10,24,09,47,9.90
2006,10,24,09,48,9.90
2006,10,24,09,49,10.00
2006,10,24,09,50,10.10
2006,10,24,09,51,10.10
2006,10,24,09,52,10.10
2006,10,24,09,53,10.20
2006,10,24,09,54,10.20
2006,10,24,09,55,10.20
2006,10,24,09,56,10.20
2006,10,24,09,57,10.20
2006,10,24,09,58,10.20
2006,10,24,09,59,10.20
2006,10,24,10,00,10.20
2006,10,24,10,01,10.20
2006,10,24,10,02,10.20
2006,10,24,10,03,10.20
2006,10,24,10,04,10.20
2006,10,24,10,05,10.30
2006,10,24,10,06,10.30
2006,10,24,10,07,10.30
2006,10,24,10,08,10.30
2006,10,24,10,09,10.40
2006,10,24,10,10,10.40
2006,10,24,10,11,10.40
2006,10,24,10,12,10.40
2006,10,24,10,13,10.40
2006,10,24,10,14,10.40
2006,10,24,10,15,10.30
2006,10,24,10,16,10.30
2006,10,24,10,17,10.30
2006,10,24,10,18,10.30
2006,10,24,10,19,10.30
2006,10,24,10,20,10.30
2006,10,24,10,21,10.30
2006,10,24,10,22,10.30
2006,10,24,10,23,10.40
2006,10,24,10,24,10.40
2006,10,24,10,25,10.40
2006,10,24,10,26,10.40
2006,10,24,10,27,10.40
2006,10,24,10,28,10.40
2006,10,24,10,29,10.40
2006,10,24,10,30,10.40
2006,10,24,10,31,10.40
2006,10,24,10,32,10.40
2006,10,24,10,33,10.40
2006,10,24,10,34,10.40
2006,10,24,10,35,10.40
2006,10,24,10,36,10.30
2006,10,24,10,37,10.30
2006,10,24,10,38,10.30
2006,10,24,10,39,10.30
2006,10,24,10,40,10.30
2006,10,24,10,41,10.30
2006,10,24,10,42,10.30
2006,10,24,10,43,10.30
2006,10,24,10,44,10.30
2006,10,24,10,45,10.30
2006,10,24,10,46,10.30
2006,10,24,10,47,10.30
2006,10,24,10,48,10.30
2006,10,24,10,49,10.30
2006,10,24,10,50,10.30
2006,10,24,10,51,10.30
2006,10,24,10,52,10.30
2006,10,24,10,53,10.30
2006,10,24,10,54,10.30
2006,10,24,10,55,10.30
2006,10,24,10,56,10.30
2006,10,24,10,57,10.20
2006,10,24,10,58,10.20
2006,10,24,10,59,10.20
2006,10,24,11,00,10.20
2006,10,24,11,01,10.20
2006,10,24,11,02,10.20
2006,10,24,11,03,10.20
2006,10,24,11,04,10.20
2006,10,24,11,05,10.20
2006,10,24,11,06,10.30
2006,10,24,11,07,10.30
2006,10,24,11,08,10.30
2006,10,24,11,09,10.30
2006,10,24,11,10,10.30
2006,10,24,11,11,10.30
2006,10,24,11,12,10.30
2006,10,24,11,13,10.30
2006,10,24,11,14,10.30
2006,10,24,11,15,10.30
2006,10,24,11,16,10.30
2006,10,24,11,17,10.30
2006,10,24,11,18,10.40
2006,10,24,11,19,10.40
2006,10,24,11,20,10.40
2006,10,24,11,21,10.40
2006,10,24,11,22,10.40
2006,10,24,11,23,10.40
2006,10,24,11,24,10.40
2006,10,24,11,25,10.40
2006,10,24,11,26,10.40
2006,10,24,11,27,10.40
2006,10,24,11,28,10.40
2006,10,24,11,29,10.50
2006,10,24,11,30,10.60
2006,10,24,11,31,10.60
2006,10,24,11,32,10.60
2006,10,24,11,33,10.60
2006,10,24,11,34,10.60
2006,10,24,11,35,10.60
2006,10,24,11,36,10.60
2006,10,24,11,37,10.60
2006,10,24,11,38,10.70
2006,10,24,11,39,10.70
2006,10,24,11,40,10.70
2006,10,24,11,41,10.70
2006,10,24,11,42,10.60
2006,10,24,11,43,10.60
2006,10,24,11,44,10.70
2006,10,24,11,45,10.70
2006,10,24,11,46,10.70
2006,10,24,11,47,10.70
2006,10,24,11,48,10.70
2006,10,24,11,49,10.70
2006,10,24,11,50,10.80
2006,10,24,11,51,10.80
2006,10,24,11,52,10.80
2006,10,24,11,53,10.80
2006,10,24,11,54,10.80
2006,10,24,11,55,10.80
2006,10,24,11,56,10.80
2006,10,24,11,57,10.80
2006,10,24,11,58,10.80
2006,10,24,11,59,10.80
2006,10,24,12,00,10.80
2006,10,24,12,01,10.80
2006,10,24,12,02,10.80
2006,10,24,12,03,10.80
2006,10,24,12,04,10.80
2006,10,24,12,05,10.80
2006,10,24,12,06,10.80
2006,10,24,12,07,10.80
2006,10,24,12,08,10.70
2006,10,24,12,09,10.70
2006,10,24,12,10,10.70
2006,10,24,12,11,10.70
2006,10,24,12,12,10.70
2006,10,24,12,13,10.80
2006,10,24,12,14,10.80
2006,10,24,12,15,10.70
2006,10,24,12,16,10.70
2006,10,24,12,17,10.70
2006,10,24,12,18,10.70
2006,10,24,12,19,10.70
2006,10,24,12,20,10.70
2006,10,24,12,21,10.70
2006,10,24,12,22,10.70
2006,10,24,12,23,10.70
2006,10,24,12,24,10.70
2006,10,24,12,25,10.70
2006,10,24,12,26,10.70
2006,10,24,12,27,10.70
2006,10,24,12,28,10.70
2006,10,24,12,29,10.70
2006,10,24,12,30,10.70
2006,10,24,12,31,10.80
2006,10,24,12,32,10.80
2006,10,24,12,33,10.80
2006,10,24,12,34,10.80
2006,10,24,12,35,10.80
2006,10,24,12,36,10.80
2006,10,24,12,37,10.80
2006,10,24,12,38,10.80
2006,10,24,12,39,10.70
2006,10,24,12,40,10.70
2006,10,24,12,41,10.70
2006,10,24,12,42,10.70
2006,10,24,12,43,10.70
2006,10,24,12,44,10.60
2006,10,24,12,45,10.60
2006,10,24,12,46,10.60
2006,10,24,12,47,10.60
2006,10,24,12,48,10.60
2006,10,24,12,49,10.60
2006,10,24,12,50,10.60
2006,10,24,12,51,10.60
2006,10,24,12,52,10.60
2006,10,24,12,53,10.60
2006,10,24,12,54,10.60
2006,10,24,12,55,10.60
2006,10,24,12,56,10.60
2006,10,24,12,57,10.60
2006,10,24,12,58,10.70
2006,10,24,12,59,10.70
2006,10,24,13,00,10.70
2006,10,24,13,01,10.70
2006,10,24,13,02,10.70
2006,10,24,13,03,10.70
2006,10,24,13,04,10.70
2006,10,24,13,05,10.70
2006,10,24,13,06,10.60
2006,10,24,13,07,10.60
2006,10,24,13,08,10.60
2006,10,24,13,09,10.60
2006,10,24,13,10,10.60
2006,10,24,13,11,10.60
2006,10,24,13,12,10.60
2006,10,24,13,13,10.60
2006,10,24,13,14,10.60
2006,10,24,13,15,10.60
2006,10,24,13,16,10.60
2006,10,24,13,17,10.60
2006,10,24,13,18,10.60
2006,10,24,13,19,10.60
2006,10,24,13,20,10.60
2006,10,24,13,21,10.60
2006,10,24,13,22,10.60
2006,10,24,13,23,10.60
2006,10,24,13,24,10.60
2006,10,24,13,25,10.60
2006,10,24,13,26,10.60
2006,10,24,13,27,10.60
2006,10,24,13,28,10.60
2006,10,24,13,29,10.60
2006,10,24,13,30,10.60
2006,10,24,13,31,10.60
2006,10,24,13,32,10.60
2006,10,24,13,33,10.60
2006,10,24,13,34,10.60
2006,10,24,13,35,10.60
2006,10,24,13,36,10.70
2006,10,24,13,37,10.70
2006,10,24,13,38,10.70
2006,10,24,13,39,10.70
2006,10,24,13,40,10.70
2006,10,24,13,41,10.70
2006,10,24,13,42,10.80
2006,10,24,13,43,10.80
2006,10,24,13,44,10.80
2006,10,24,13,45,10.80
2006,10,24,13,46,10.80
2006,10,24,13,47,10.80
2006,10,24,13,48,10.80
2006,10,24,13,49,10.80
2006,10,24,13,50,10.80
2006,10,24,13,51,10.90
2006,10,24,13,52,10.90
2006,10,24,13,53,10.90
2006,10,24,13,54,10.90
2006,10,24,13,55,10.90
2006,10,24,13,56,10.90
2006,10,24,13,57,10.90
2006,10,24,13,58,10.90
2006,10,24,13,59,11.00
2006,10,24,14,00,11.10
2006,10,24,14,01,11.10
2006,10,24,14,02,11.10
2006,10,24,14,03,11.10
2006,10,24,14,04,11.10
2006,10,24,14,05,11.10
2006,10,24,14,06,11.20
2006,10,24,14,07,11.10
2006,10,24,14,08,11.20
2006,10,24,14,09,11.20
2006,10,24,14,10,11.20
2006,10,24,14,11,11.20
2006,10,24,14,12,11.20
2006,10,24,14,13,11.20
2006,10,24,14,14,11.30
2006,10,24,14,15,11.30
2006,10,24,14,16,11.30
2006,10,24,14,17,11.40
2006,10,24,14,18,11.40
2006,10,24,14,19,11.40
2006,10,24,14,20,11.40
2006,10,24,14,21,11.40
2006,10,24,14,22,11.40
2006,10,24,14,23,11.40
2006,10,24,14,24,11.40
2006,10,24,14,25,11.40
2006,10,24,14,26,11.40
2006,10,24,14,27,11.40
2006,10,24,14,28,11.40
2006,10,24,14,29,11.40
2006,10,24,14,30,11.40
2006,10,24,14,31,11.40
2006,10,24,14,32,11.40
2006,10,24,14,33,11.40
2006,10,24,14,34,11.50
2006,10,24,14,35,11.60
2006,10,24,14,36,11.50
2006,10,24,14,37,11.40
2006,10,24,14,38,11.40
2006,10,24,14,39,11.40
2006,10,24,14,40,11.40
2006,10,24,14,41,11.40
2006,10,24,14,42,11.30
2006,10,24,14,43,11.30
2006,10,24,14,44,11.30
2006,10,24,14,45,11.40
2006,10,24,14,46,11.40
2006,10,24,14,47,11.30
2006,10,24,14,48,11.30
2006,10,24,14,49,11.30
2006,10,24,14,50,11.30
2006,10,24,14,51,11.40
2006,10,24,14,52,11.40
2006,10,24,14,53,11.40
2006,10,24,14,54,11.40
2006,10,24,14,55,11.30
2006,10,24,14,56,11.30
2006,10,24,14,57,11.30
2006,10,24,14,58,11.30
2006,10,24,14,59,11.30
2006,10,24,15,00,11.30
2006,10,24,15,01,11.30
2006,10,24,15,02,11.30
2006,10,24,15,03,11.30
2006,10,24,15,04,11.40
2006,10,24,15,05,11.40
2006,10,24,15,06,11.40
2006,10,24,15,07,11.40
2006,10,24,15,08,11.40
2006,10,24,15,09,11.30
2006,10,24,15,10,11.30
2006,10,24,15,11,11.30
2006,10,24,15,12,11.30
2006,10,24,15,13,11.30
2006,10,24,15,14,11.30
2006,10,24,15,15,11.30
2006,10,24,15,16,11.20
2006,10,24,15,17,11.20
2006,10,24,15,18,11.20
2006,10,24,15,19,11.20
2006,10,24,15,20,11.20
2006,10,24,15,21,11.20
2006,10,24,15,22,11.20
2006,10,24,15,23,11.20
2006,10,24,15,24,11.20
2006,10,24,15,25,11.20
2006,10,24,15,26,11.20
2006,10,24,15,27,11.20
2006,10,24,15,28,11.20
2006,10,24,15,29,11.20
2006,10,24,15,30,11.20
2006,10,24,15,31,11.20
2006,10,24,15,32,11.20
2006,10,24,15,33,11.20
2006,10,24,15,34,11.20
2006,10,24,15,35,11.20
2006,10,24,15,36,11.20
2006,10,24,15,37,11.30
2006,10,24,15,38,11.30
2006,10,24,15,39,11.30
2006,10,24,15,40,11.30
2006,10,24,15,41,11.30
2006,10,24,15,42,11.40
2006,10,24,15,43,11.40
2006,10,24,15,44,11.40
2006,10,24,15,45,11.40
2006,10,24,15,46,11.40
2006,10,24,15,47,11.40
2006,10,24,15,48,11.40
2006,10,24,15,49,11.50
2006,10,24,15,50,11.60
2006,10,24,15,51,11.60
2006,10,24,15,52,11.60
2006,10,24,15,53,11.60
2006,10,24,15,54,11.60
2006,10,24,15,55,11.60
2006,10,24,15,56,11.70
2006,10,24,15,57,11.70
2006,10,24,15,58,11.70
2006,10,24,15,59,11.80
2006,10,24,16,00,11.80
2006,10,24,16,01,11.80
2006,10,24,16,02,11.80
2006,10,24,16,03,11.80
2006,10,24,16,04,11.90
2006,10,24,16,05,11.90
2006,10,24,16,06,11.90
2006,10,24,16,07,11.90
2006,10,24,16,08,11.90
2006,10,24,16,09,11.90
2006,10,24,16,10,11.90
2006,10,24,16,11,11.90
2006,10,24,16,12,11.90
2006,10,24,16,13,11.80
2006,10,24,16,14,11.80
2006,10,24,16,15,11.80
2006,10,24,16,16,11.80
2006,10,24,16,17,11.80
2006,10,24,16,18,11.80
2006,10,24,16,19,11.80
2006,10,24,16,20,11.80
2006,10,24,16,21,11.90
2006,10,24,16,22,12.00
2006,10,24,16,23,12.00
2006,10,24,16,24,12.10
2006,10,24,16,25,12.10
2006,10,24,16,26,12.10
2006,10,24,16,27,12.10
2006,10,24,16,28,12.00
2006,10,24,16,29,12.00
2006,10,24,16,30,11.90
2006,10,24,16,31,11.90
2006,10,24,16,32,11.90
2006,10,24,16,33,11.90
2006,10,24,16,34,11.90
2006,10,24,16,35,11.90
2006,10,24,16,36,11.90
2006,10,24,16,37,11.90
2006,10,24,16,38,12.00
2006,10,24,16,39,12.00
2006,10,24,16,40,12.00
2006,10,24,16,41,12.00
2006,10,24,16,42,12.00
2006,10,24,16,43,12.10
2006,10,24,16,44,12.10
2006,10,24,16,45,12.10
2006,10,24,16,46,12.20
2006,10,24,16,47,12.30
2006,10,24,16,48,12.30
2006,10,24,16,49,12.30
2006,10,24,16,50,12.30
2006,10,24,16,51,12.30
2006,10,24,16,52,12.30
2006,10,24,16,53,12.30
2006,10,24,16,54,12.30
2006,10,24,16,55,12.30
2006,10,24,16,56,12.30
2006,10,24,16,57,12.30
2006,10,24,16,58,12.20
2006,10,24,16,59,12.20
2006,10,24,17,00,12.20
2006,10,24,17,01,12.10
2006,10,24,17,02,12.00
2006,10,24,17,03,12.00
2006,10,24,17,04,11.90
2006,10,24,17,05,11.90
2006,10,24,17,06,11.80
2006,10,24,17,07,11.80
2006,10,24,17,08,11.80
2006,10,24,17,09,11.80
2006,10,24,17,10,11.80
2006,10,24,17,11,11.80
2006,10,24,17,12,11.80
2006,10,24,17,13,11.70
2006,10,24,17,14,11.70
2006,10,24,17,15,11.70
2006,10,24,17,16,11.60
2006,10,24,17,17,11.60
2006,10,24,17,18,11.60
2006,10,24,17,19,11.60
2006,10,24,17,20,11.60
2006,10,24,17,21,11.60
2006,10,24,17,22,11.60
2006,10,24,17,23,11.60
2006,10,24,17,24,11.60
2006,10,24,17,25,11.60
2006,10,24,17,26,11.60
2006,10,24,17,27,11.60
2006,10,24,17,28,11.60
2006,10,24,17,29,11.50
2006,10,24,17,30,11.40
2006,10,24,17,31,11.40
2006,10,24,17,32,11.40
2006,10,24,17,33,11.40
2006,10,24,17,34,11.40
2006,10,24,17,35,11.30
2006,10,24,17,36,11.30
2006,10,24,17,37,11.20
2006,10,24,17,38,11.20
2006,10,24,17,39,11.20
2006,10,24,17,40,11.10
2006,10,24,17,41,11.10
2006,10,24,17,42,11.10
2006,10,24,17,43,11.10
2006,10,24,17,44,11.10
2006,10,24,17,45,11.10